Location: Edinburgh
(55.9500°N, 3.1600°W)
Time: 08:56:48
(UTC+01:00)

AO-73 - Visible Passes

Search period start: 21 May 2024 00:00
Search period end: 31 May 2024 00:00
Orbit: 560 x 625 km, 97.7° (Epoch: 20 May)

Date Brightness Start Highest point End Pass type
(mag) Time Alt. Az. Time Alt. Az. Time Alt. Az.
22 May ? 02:54:18 10° ENE 02:54:50 10° E 02:55:21 10° E visible
23 May ? 03:01:58 10° ENE 03:03:42 12° E 03:05:25 10° ESE visible
24 May ? 03:10:12 10° NE 03:12:32 14° E 03:14:51 10° ESE visible
25 May ? 03:18:33 10° NE 03:21:21 17° E 03:24:05 10° SE visible
26 May ? 03:27:00 10° NE 03:30:07 20° E 03:33:11 10° SE visible
27 May ? 03:35:28 10° NE 03:38:52 23° E 03:42:11 10° SE visible
